軌道要素
Epoch 2021 May 26.0 TT = JDT 2459360.5
T 2021 June 5.56988 TT Rudenko
q 1.5356596 (2000.0) P Q
z -0.0009931 Peri. 249.58763 +0.33976695 +0.19781044
+/-0.0000037 Node 86.16478 +0.00193813 +0.97748270
e 1.0015250 Incl. 67.15170 -0.94050766 +0.07347515
From 80 observations 2020 Apr. 3-2021 May 18, mean residual 0".7.
|